Location: Brompton
(51.4000°N, 0.5333°E)
Time: 09:41:52
(UTC+00:00)

BREEZE-M DEB (TANK) - Pass Details

Date: 11 May 2021
Orbit: 287 x 13020 km, 49.6° (Epoch: 12 June)

Event Time Altitude Azimuth Distance (km) Brightness Sun altitude
Rises 19:52:24 0° 277° (W) 2,804 7.2 -2.8°
Reaches altitude 10° 19:53:48 10° 274° (W) 2,215 6.5 -3.0°
Maximum altitude 19:58:30 72° 191° (S) 1,401 4.3 -3.6°
Drops below altitude 10° 20:17:02 10° 112° (ESE) 7,945 7.6 -5.9°
Enters shadow 20:25:38 - 113° (ESE) 10,559 8.2 -6.9°
